(°C)
10°
11°
11°
11°
10°
(°C)
SSO
SSO
SO
OSO
OSO
OSO
O
(km/h)
20-32
20-33
19-33
17-30
16-28
14-26
13-23
(mm)
0
0
0
0
0
0
0
(%)
0
0
0
0
0
0
0

Élévation du soleil

/ 27°
sun-icon
UV 2
07:20
18:02
Gibbeuse croissante (132°)
17:12
01:50

METAR pour 52.53°N 31.02°E (UMGG)

Heure Conditions Température/
Point de rosée
Vent Visibilité Météo Nuages Pression Changement Brut
VFR 7°C / 2°C 210º 10kt Gust 16kt >10km - Clouds and Visibility OK 1015 No Significant change UMGG 160800Z 21005G08MPS CAVOK 07/02 Q1015 R28/CLRD// NOSIG
VFR 7°C / 1°C 190º 12kt Gust 17kt >10km - Clouds and Visibility OK 1015 No Significant change UMGG 160730Z 19006G09MPS CAVOK 07/01 Q1015 R28/CLRD// NOSIG
VFR 7°C / 1°C 200º 12kt Gust 17kt >10km - Clouds and Visibility OK 1015 No Significant change UMGG 160700Z 20006G09MPS CAVOK 07/01 Q1015 R28/D NOSIG
VFR 7°C / 1°C 200º 12kt Gust 17kt >10km - Clouds and Visibility OK 1015 No Significant change UMGG 160630Z 20006G09MPS CAVOK 07/01 Q1015 R28/D NOSIG
VFR 7°C / 1°C 200º 12kt Gust 17kt >10km - Clouds and Visibility OK 1015 No Significant change UMGG 160600Z 20006G09MPS CAVOK 07/01 Q1015 R28/CLRD// NOSIG
VFR 5°C / 0°C 180º 10kt Gust 16kt >10km - Clouds and Visibility OK 1015 No Significant change UMGG 160530Z 18005G08MPS CAVOK 05/00 Q1015 R28/CLRD// NOSIG
VFR 5°C / 0°C 190º 12kt >10km - Clouds and Visibility OK 1015 No Significant change UMGG 160500Z 19006MPS CAVOK 05/00 Q1015 R28/CLRD// NOSIG
VFR 5°C / 0°C 190º 12kt >10km - Clouds and Visibility OK 1015 No Significant change UMGG 160430Z 19006MPS CAVOK 05/00 Q1015 R28/CLRD// NOSIG
VFR 5°C / 0°C 190º 10kt Gust 16kt >10km - Clouds and Visibility OK 1015 No Significant change UMGG 160400Z 19005G08MPS CAVOK 05/00 Q1015 R28/CLRD// NOSIG
VFR 5°C / 1°C 200º 12kt >10km - Clouds and Visibility OK 1016 No Significant change UMGG 160330Z 20006MPS CAVOK 05/01 Q1016 R28/CLRD// NOSIG
VFR 5°C / 1°C 200º 12kt >10km - Clouds and Visibility OK 1016 No Significant change UMGG 160300Z 20006MPS CAVOK 05/01 Q1016 R28/D NOSIG
VFR 6°C / 2°C 200º 10kt >10km - Clouds and Visibility OK 1016 No Significant change UMGG 160200Z 20005MPS CAVOK 06/02 Q1016 R28/D NOSIG
VFR 6°C / 2°C 190º 10kt >10km - Clouds and Visibility OK 1016 No Significant change UMGG 160100Z 19005MPS CAVOK 06/02 Q1016 R28/CLRD// NOSIG
VFR 7°C / 2°C 190º 10kt >10km - Clouds and Visibility OK 1017 No Significant change UMGG 160000Z 19005MPS CAVOK 07/02 Q1017 R28/CLRD// NOSIG
VFR 7°C / 2°C 190º 10kt >10km - Clouds and Visibility OK 1017 No Significant change UMGG 152300Z 19005MPS CAVOK 07/02 Q1017 R28/D NOSIG
VFR 8°C / 2°C 190º 10kt >10km - Clouds and Visibility OK 1017 No Significant change UMGG 152200Z 19005MPS CAVOK 08/02 Q1017 R28/CLRD// NOSIG
VFR 8°C / 2°C 200º 10kt >10km - Clouds and Visibility OK 1018 No Significant change UMGG 152100Z 20005MPS CAVOK 08/02 Q1018 R28/CLRD// NOSIG
VFR 8°C / 2°C 190º 10kt >10km - Clouds and Visibility OK 1018 No Significant change UMGG 152000Z 19005MPS CAVOK 08/02 Q1018 R28/CLRD// NOSIG
VFR 9°C / 2°C 190º 10kt >10km - Clouds and Visibility OK 1018 No Significant change UMGG 151900Z 19005MPS CAVOK 09/02 Q1018 R28/CLRD// NOSIG
VFR 10°C / 3°C 190º 12kt >10km - Clouds and Visibility OK 1018 No Significant change UMGG 151800Z 19006MPS CAVOK 10/03 Q1018 R28/CLRD// NOSIG
VFR 10°C / 3°C 200º 14kt >10km - Broken Clouds 4800ft 1018 No Significant change UMGG 151700Z 20007MPS 9999 BKN048 10/03 Q1018 R28/CLRD// NOSIG
VFR 10°C / 3°C 210º 14kt >10km - Broken Clouds 4600ft 1018 No Significant change UMGG 151630Z 21007MPS 9999 BKN046 10/03 Q1018 R28/CLRD// NOSIG
VFR 10°C / 3°C 210º 14kt >10km - Broken Clouds 4600ft 1018 No Significant change UMGG 151600Z 21007MPS 9999 BKN046 10/03 Q1018 R28/CLRD// NOSIG
VFR 10°C / 2°C 190º 12kt >10km - Broken Clouds 4500ft 1018 No Significant change UMGG 151530Z 19006MPS 9999 BKN045CB 10/02 Q1018 R28/CLRD// NOSIG

VFR

7°C / 2°C

[Plus]
Vent 210º 10kt Gust 16kt
Visibilité >10km
Météo -
Nuages Clouds and Visibility OK
Pression 1015
Changement No Significant change
Brut UMGG 160800Z 21005G08MPS CAVOK 07/02 Q1015 R28/CLRD// NOSIG

VFR

7°C / 1°C

[Plus]
Vent 190º 12kt Gust 17kt
Visibilité >10km
Météo -
Nuages Clouds and Visibility OK
Pression 1015
Changement No Significant change
Brut UMGG 160730Z 19006G09MPS CAVOK 07/01 Q1015 R28/CLRD// NOSIG

VFR

7°C / 1°C

[Plus]
Vent 200º 12kt Gust 17kt
Visibilité >10km
Météo -
Nuages Clouds and Visibility OK
Pression 1015
Changement No Significant change
Brut UMGG 160700Z 20006G09MPS CAVOK 07/01 Q1015 R28/D NOSIG

VFR

7°C / 1°C

[Plus]
Vent 200º 12kt Gust 17kt
Visibilité >10km
Météo -
Nuages Clouds and Visibility OK
Pression 1015
Changement No Significant change
Brut UMGG 160630Z 20006G09MPS CAVOK 07/01 Q1015 R28/D NOSIG

VFR

7°C / 1°C

[Plus]
Vent 200º 12kt Gust 17kt
Visibilité >10km
Météo -
Nuages Clouds and Visibility OK
Pression 1015
Changement No Significant change
Brut UMGG 160600Z 20006G09MPS CAVOK 07/01 Q1015 R28/CLRD// NOSIG

VFR

5°C / 0°C

[Plus]
Vent 180º 10kt Gust 16kt
Visibilité >10km
Météo -
Nuages Clouds and Visibility OK
Pression 1015
Changement No Significant change
Brut UMGG 160530Z 18005G08MPS CAVOK 05/00 Q1015 R28/CLRD// NOSIG

VFR

5°C / 0°C

[Plus]
Vent 190º 12kt
Visibilité >10km
Météo -
Nuages Clouds and Visibility OK
Pression 1015
Changement No Significant change
Brut UMGG 160500Z 19006MPS CAVOK 05/00 Q1015 R28/CLRD// NOSIG

VFR

5°C / 0°C

[Plus]
Vent 190º 12kt
Visibilité >10km
Météo -
Nuages Clouds and Visibility OK
Pression 1015
Changement No Significant change
Brut UMGG 160430Z 19006MPS CAVOK 05/00 Q1015 R28/CLRD// NOSIG

VFR

5°C / 0°C

[Plus]
Vent 190º 10kt Gust 16kt
Visibilité >10km
Météo -
Nuages Clouds and Visibility OK
Pression 1015
Changement No Significant change
Brut UMGG 160400Z 19005G08MPS CAVOK 05/00 Q1015 R28/CLRD// NOSIG

VFR

5°C / 1°C

[Plus]
Vent 200º 12kt
Visibilité >10km
Météo -
Nuages Clouds and Visibility OK
Pression 1016
Changement No Significant change
Brut UMGG 160330Z 20006MPS CAVOK 05/01 Q1016 R28/CLRD// NOSIG

VFR

5°C / 1°C

[Plus]
Vent 200º 12kt
Visibilité >10km
Météo -
Nuages Clouds and Visibility OK
Pression 1016
Changement No Significant change
Brut UMGG 160300Z 20006MPS CAVOK 05/01 Q1016 R28/D NOSIG

VFR

6°C / 2°C

[Plus]
Vent 200º 10kt
Visibilité >10km
Météo -
Nuages Clouds and Visibility OK
Pression 1016
Changement No Significant change
Brut UMGG 160200Z 20005MPS CAVOK 06/02 Q1016 R28/D NOSIG

VFR

6°C / 2°C

[Plus]
Vent 190º 10kt
Visibilité >10km
Météo -
Nuages Clouds and Visibility OK
Pression 1016
Changement No Significant change
Brut UMGG 160100Z 19005MPS CAVOK 06/02 Q1016 R28/CLRD// NOSIG

VFR

7°C / 2°C

[Plus]
Vent 190º 10kt
Visibilité >10km
Météo -
Nuages Clouds and Visibility OK
Pression 1017
Changement No Significant change
Brut UMGG 160000Z 19005MPS CAVOK 07/02 Q1017 R28/CLRD// NOSIG

VFR

7°C / 2°C

[Plus]
Vent 190º 10kt
Visibilité >10km
Météo -
Nuages Clouds and Visibility OK
Pression 1017
Changement No Significant change
Brut UMGG 152300Z 19005MPS CAVOK 07/02 Q1017 R28/D NOSIG

VFR

8°C / 2°C

[Plus]
Vent 190º 10kt
Visibilité >10km
Météo -
Nuages Clouds and Visibility OK
Pression 1017
Changement No Significant change
Brut UMGG 152200Z 19005MPS CAVOK 08/02 Q1017 R28/CLRD// NOSIG

VFR

8°C / 2°C

[Plus]
Vent 200º 10kt
Visibilité >10km
Météo -
Nuages Clouds and Visibility OK
Pression 1018
Changement No Significant change
Brut UMGG 152100Z 20005MPS CAVOK 08/02 Q1018 R28/CLRD// NOSIG

VFR

8°C / 2°C

[Plus]
Vent 190º 10kt
Visibilité >10km
Météo -
Nuages Clouds and Visibility OK
Pression 1018
Changement No Significant change
Brut UMGG 152000Z 19005MPS CAVOK 08/02 Q1018 R28/CLRD// NOSIG

VFR

9°C / 2°C

[Plus]
Vent 190º 10kt
Visibilité >10km
Météo -
Nuages Clouds and Visibility OK
Pression 1018
Changement No Significant change
Brut UMGG 151900Z 19005MPS CAVOK 09/02 Q1018 R28/CLRD// NOSIG

VFR

10°C / 3°C

[Plus]
Vent 190º 12kt
Visibilité >10km
Météo -
Nuages Clouds and Visibility OK
Pression 1018
Changement No Significant change
Brut UMGG 151800Z 19006MPS CAVOK 10/03 Q1018 R28/CLRD// NOSIG

VFR

10°C / 3°C

[Plus]
Vent 200º 14kt
Visibilité >10km
Météo -
Nuages Broken Clouds 4800ft
Pression 1018
Changement No Significant change
Brut UMGG 151700Z 20007MPS 9999 BKN048 10/03 Q1018 R28/CLRD// NOSIG

VFR

10°C / 3°C

[Plus]
Vent 210º 14kt
Visibilité >10km
Météo -
Nuages Broken Clouds 4600ft
Pression 1018
Changement No Significant change
Brut UMGG 151630Z 21007MPS 9999 BKN046 10/03 Q1018 R28/CLRD// NOSIG

VFR

10°C / 3°C

[Plus]
Vent 210º 14kt
Visibilité >10km
Météo -
Nuages Broken Clouds 4600ft
Pression 1018
Changement No Significant change
Brut UMGG 151600Z 21007MPS 9999 BKN046 10/03 Q1018 R28/CLRD// NOSIG

VFR

10°C / 2°C

[Plus]
Vent 190º 12kt
Visibilité >10km
Météo -
Nuages Broken Clouds 4500ft
Pression 1018
Changement No Significant change
Brut UMGG 151530Z 19006MPS 9999 BKN045CB 10/02 Q1018 R28/CLRD// NOSIG

TAF pour 52.53°N 31.02°E (UMGG)

From till


From till Wind 210º 12kt. Visibility 10km or more. Scattered Clouds 3000ft.
Becoming from till Wind 250º 12kt. Visibility 10km or more. Scattered Clouds 3000ft.
Temporarly from till Wind 260º 12kt. Gust 21kt. Scattered Clouds 2000ft.
Temporarly from till Visibility 2000m. Mist .

Brut: TAF UMGG 160457Z 1606/1706 21006MPS 9999 SCT030 BECMG 1608/1609 25006MPS TEMPO 1609/1613 26006G11MPS SCT020CB TEMPO 1700/1706 2000 BR

Les images satellites et les pluies actuelles pour 52.53°N 31.02°E

Le marqueur est placé sur 52.53°N 31.02°E. [Plus]

L'image satellite en temps réel combine la lumière visible pendant la journée et le rayonnement infrarouge pendant la nuit. La nuit, l'image n'est pas sombre car le rayonnement infrarouge permet de détecter les différences de température. Malheureusement, les nuages bas et le brouillard sont difficiles à distinguer des températures au sol et peuvent donc être presque invisibles pendant la nuit. Les images des satellites Météosat pour l'Europe sont mises à jour en temps réel toutes les 5 minutes. Les images GOES-16/GOES-17 (Amérique du Nord et du Sud) et Himawari (Asie) sont mises à jour toutes les 10 minutes.

Copyright 2021 EUMETSAT / meteoblue. / Copyright 2021 meteoblue

Radar et prévision de précipitation à court terme pour 52.53°N 31.02°E

Bruine
Légère
Modéré
Fort
Très fort
Grêle

Le marqueur est placé sur 52.53°N 31.02°E. Cette animation montre le Radar des précipitations pour les dernières heures, ainsi qu'une 1h prévision. La bruine ou les légères chutes de neiges peuvent ne pas être détectées par le radar. L'intensité des précipitations est visible avec un code couleur allant du bleu clair au orange.